Location: Newark
(35.6799°N, 139.7636°E)
Time: 07:37:54
(UTC+00:00)

Explorer 7 - Pass Details

Date: 09 December 2019
Orbit: 485 x 679 km, 50.3° (Epoch: 21 January)

Event Time Altitude Azimuth Distance (km) Brightness Sun altitude
Rises 13:28:56 0° 309° (NW) 2,991 - -71.0°
Reaches altitude 10° 13:31:20 10° 309° (NW) 2,055 - -71.4°
Maximum altitude 13:36:05 87° 225° (SW) 631 - -72.1°
Drops below altitude 10° 13:40:32 10° 132° (SE) 1,932 - -72.8°
Sets 13:42:45 0° 132° (SE) 2,797 - -73.1°
